Regional Weather Roundup
Issued by NWS

Home | Current Version | Previous Version | Text Only | Print | Product List | Glossary On
Versions: 1 2 3 4 5 6 7 8 9 10 11 12 13 14 15 16 17 18 19 20 21 22 23 24 25 26 27 28 29 30 31 32 33 34 35 36 37 38 39 40 41 42 43 44 45 46 47 48 49 50
000
ASUS42 KKEY 240910
RWRKEY

FLORIDA REGIONAL WEATHER ROUNDUP FOR THE FLORIDA KEYS
NATIONAL WEATHER SERVICE KEY WEST FLORIDA
500 AM EDT SUN MAY 24 2015

...SOUTH FLORIDA AND THE KEYS...

CITY           SKY/WX    TMP DP  RH WIND       PRES   REMARKS
FORT MYERS     CLEAR     74  73  97 NE3       30.14S
SW REGIONAL AP CLEAR     74  72  93 CALM      30.15R
NAPLES         CLEAR     74  32  21 NE7       30.13S
MIAMI          MOCLDY    79  67  66 E8        30.13S
WEST KENDALL   PTCLDY    76  69  79 E7        30.13R
HOMESTEAD      NOT AVBL
MARATHON       MOCLDY    82  74  76 E9        30.09S
BOCA CHICA NAS PTCLDY    81  73  76 E15       30.08F
KEY WEST INTL  PTCLDY    81  74  79 E16       30.09F

...INTERNATIONAL WEATHER...

CITY           SKY/WX    TMP DP  RH WIND       PRES   REMARKS
NASSAU BAHAMAS PTCLDY    79  73  83 VRB1      30.13S
CANCUN MEXICO  MOCLDY    81  77  89 E6        30.01F
COZUMEL MEXICO MOCLDY    73  73 100 CALM      30.02S

ADJACENT COASTAL WATERS...

STATION/POSITION TIME  SKY/WX   TEMP    WIND        PRES    WAVE
                                AIR SEA DIR/SP/G            HT/PER
                 (UTC)          (F)     (DEG/KT/KT) (MB)    (FT/S)
PULASKI SHOAL LI 0800            82     110/ 16/ 18 1018.7F
SAND KEY         0850            81     100/ 19/ 21 1018.6F
SOMBRERO KEY     0900            81     100/ 18/ 19 1019.5R
LONG KEY         0800            81 85  110/ 15/ 17 1020.0S
MOLASSES REEF    0900            80 82  100/ 15/ 17 1019.3R
FOWEY ROCKS      NOT AVBL

$$


USA.gov is the U.S. government's official web portal to all federal, state and local government web resources and services.